Weather in La Herradura

Spain     36°44′07″N   3°44′11″W
temp.,
°C
wind,
m/s
gust,
m/s
humid.,
%
clouds,
%
prec.,
mm/h
press.,
hPa
HPBL,
m
15 april, thu
thu1523:00+12se2393100 0.5 1016343
02:00+12se3493100 0.8 1015350
05:00+12nw1188100 0.1 1014226
08:00+12sw1194100 0.3 1013186
11:00+12wsw3395100 1.6 1014228
14:00+13ssw3295100 3.6 1014230
17:00+12s4397100 1.8 1013295
20:00+12s3297100 6.1 1014242
16 april, fri
fri1623:00+12sse4397100 3.5 1016308
02:00+11sse3397100 7.1 1016251
05:00+12sse2298100 2.1 1015185
08:00+12s2296100 2.9 1016222
11:00+12s3393100 0.4 1017377
14:00+11nnw0197100 1.9 1018125
17:00+12n0191100 1.3 1016165
20:00+12sw129071 1.3 1016255
17 april, sat
sat1723:00+12ssw339582 2.4 1017255
02:00+12e119296 2.4 1018180
05:00+12ese1188100 0.1 1017358
08:00+12se018667 0.2 1017248
11:00+13ssw338219 0.1 1018381
14:00+14ssw558035 0.1 1017641
17:00+14ssw448442 0.0 1016422
20:00+13s128139 0.0 1017178
18 april, sun
sun1823:00+14ene23600 0.0 1019129
02:00+13ese33783 0.0 1020307
05:00+13se12775 0.0 1019277
08:00+13ne125718 0.0 1020148
11:00+14s4472100 0.0 1021424
14:00+14s438099 0.0 1021348
17:00+12s1186100 0.0 1020197
20:00+13nne1279100 0.0 1021132
19 april, mon
mon1923:00+15ese1174100 0.0 1022121
02:00+15se2274100 0.0 1021139
05:00+14ne227775 0.0 1020177
08:00+15wnw016980 0.0 101931
11:00+15ssw226753 0.0 1019160
14:00+15sw337016 0.0 1018430
17:00+17wsw4467100 0.1 1016389
20:00+17w45675 0.1 1015204